{"data":{"norad_id":82073,"epoch":"2026-05-23T22:20:26.034432Z","epoch_age_seconds":167126,"freshness":"FRESH","line1":"1 82073U          26143.93085688  .00002179  00000+0  55188-3 0  9991","line2":"2 82073  97.7320 209.5523 0206162 151.8254 209.4276 14.39766015598452","mean_motion":14.39766015,"eccentricity":0.0206162,"inclination_deg":97.732,"raan_deg":209.5523,"arg_perigee_deg":151.8254,"mean_anomaly_deg":209.4276,"bstar":0.00055188,"rev_number":59845,"period_min":100.01625159905,"perigee_km":612.12540220943,"apogee_km":906.41789047895,"semimajor_km":7137.4086463442,"source":"CELESTRAK","updated_at":"2026-05-25T13:38:11.091034Z"}}